WNISAT-1

Last updated on Sun Oct 26 2025 00:03:57 GMT+0000 (Coordinated Universal Time)

1 39423U 13066H 25298.40211344 .00002042 00000+0 38407-3 0 9994 2 39423 97.6912 99.7571 0163391 251.2961 107.0444 14.57423709632524
UTC large
Height (km)
Speed (km/s)
/
Latitude / Longitude
Inclination (degrees)
Orbital Period (minutes)
Azimuth
Elevation
Range (km)
Doppler Factor

Next 0 passes for location: London (51.5072 / 0.1276)

Sorry there are no passes over London.